AirNav   Air Wisconsin Up To $57,000 Bonus
 
 1733 users online  

8D1 New Holstein Municipal Airport
New Holstein, Wisconsin, USA

GOING TO NEW HOLSTEIN?


FAA INFORMATION EFFECTIVE 07 NOVEMBER 2019

Location

FAA Identifier: 8D1
Lat/Long: 43-56-38.7765N 088-06-53.4301W
43-56.646275N 088-06.890502W
43.9441046,-88.1148417
(estimated)
Elevation: 992.2 ft. / 302.4 m (surveyed)
Variation: 03W (2010)
From city: 1 mile W of NEW HOLSTEIN, WI
Time zone: UTC -6 (UTC -5 during Daylight Saving Time)
Zip code: 53061

Airport Operations

Airport use: Open to the public
Activation date: 09/1958
Control tower: no
ARTCC: CHICAGO CENTER
FSS: GREEN BAY FLIGHT SERVICE STATION
NOTAMs facility: GRB (NOTAM-D service available)
Attendance: UNATNDD
Wind indicator: lighted
Segmented circle: yes
Lights: ACTVT REIL RWY 14 & 32; PAPI RWY 14 & 32; MIRL RWY 14/32 - CTAF.
Beacon: white-green (lighted land airport)
Operates sunset to sunrise.

Airport Communications

CTAF/UNICOM: 123.0
MILWAUKEE APPROACH: 127.0
MILWAUKEE DEPARTURE: 127.0
WX ASOS at SBM (15 nm SE): 118.425 (920-467-0744)
WX ASOS at FLD (19 nm SW): 134.0 (920-922-4444)
WX ASOS at OSH (19 nm W): PHONE 920-426-1644

Nearby radio navigation aids

VOR radial/distance  VOR name  Freq  Var
FAHr314/15.6FALLS VOR/DME110.0002W
OSHr096/19.2OSHKOSH VORTAC116.7502E
BJBr002/(31.3)WEST BEND VOR109.8001W
GRBr174/36.8GREEN BAY VORTAC115.5001E

Airport Services

Fuel available: 100LL
24 HR SELF SERVICE FUEL WITH CREDIT CARD. ATTENDED 0800-1500 FRI-SUN.
Parking: hangars and tiedowns
Airframe service: MAJOR
Powerplant service: MAJOR

Runway Information

Runway 14/32

Dimensions: 3600 x 75 ft. / 1097 x 23 m
Surface: asphalt, in excellent condition
Weight bearing capacity: 
Single wheel: 20.0
Runway edge lights: medium intensity
RUNWAY 14  RUNWAY 32
Latitude: 43-56.885717N43-56.423222N
Longitude: 088-07.064270W088-06.553188W
Elevation: 976.6 ft.976.5 ft.
Traffic pattern: leftleft
Runway heading: 144 magnetic, 141 true324 magnetic, 321 true
Markings: nonprecision, in good conditionnonprecision, in good condition
Visual slope indicator: 2-light PAPI on left (3.20 degrees glide path)2-light PAPI on left (3.00 degrees glide path)
Runway end identifier lights: yesyes
Touchdown point: yes, no lightsyes, no lights
Obstructions: 19 ft. road, 660 ft. from runway, 170 ft. left of centerline, 24:1 slope to clear5 ft. gnd, 350 ft. from runway, 125 ft. right of centerline, 30:1 slope to clear
+7 FT TRRN 140 FT R OF CNTRLN.

Runway 4/22

Dimensions: 2951 x 250 ft. / 899 x 76 m
Surface: turf, in fair condition
Gradient: SW.
Operational restrictions: CLSD NOV 1 THRU MAY 1.
RUNWAY 4  RUNWAY 22
Latitude: 43-56.454092N43-56.818463N
Longitude: 088-07.212500W088-06.768013W
Elevation: 992.1 ft.973.6 ft.
Traffic pattern: leftright
Runway heading: 044 magnetic, 041 true224 magnetic, 221 true
Markings: nonenone
Runway end identifier lights: nono
Touchdown point: yes, no lightsyes, no lights
Obstructions: 71 ft. tree, 1430 ft. from runway, 20:1 slope to clear78 ft. trees, 1400 ft. from runway, 250 ft. right of centerline, 18:1 slope to clear

Airport Ownership and Management from official FAA records

Ownership: Publicly-owned
Owner: CITY OF NEW HOLSTEIN
2110 WASHINGTON ST
NEW HOLSTEIN, WI 53061
Phone 920-898-5766
Manager: CASSANDRA LAGENFELD
2110 WISCONSIN ST
NEW HOLSTEIN, WI 53061
Phone 920-898-5766
EX 3.

Airport Operational Statistics

Aircraft based on the field: 23
Single engine airplanes: 21
Ultralights: 2
    
Aircraft operations: avg 22/day *
51% local general aviation
44% transient general aviation
3% military
3% air taxi
* for 12-month period ending 25 August 2017

Additional Remarks

NUMEROUS BIRDS INVOF ARPT.
PCL OTS EXC STEP 1.
FOR CD CTC CHICAGO ARTCC AT 630-906-8921.

Instrument Procedures

NOTE: All procedures below are presented as PDF files. If you need a reader for these files, you should download the free Adobe Reader.

NOT FOR NAVIGATION. Please procure official charts for flight.
FAA instrument procedures published for use from 07 November 2019 at 0901Z to 05 December 2019 at 0900Z.

 
IAPs - Instrument Approach Procedures
RNAV (GPS) RWY 14 **CHANGED**   download (211KB)
RNAV (GPS) RWY 32 **CHANGED**   download (225KB)
VOR/DME-A **CHANGED**   download (168KB)
NOTE: Special Take-Off Minimums/Departure Procedures apply   download (201KB)

Other nearby airports with instrument procedures:

KSBM - Sheboygan County Memorial Airport (15 nm SE)
KFLD - Fond Du Lac County Airport (19 nm SW)
KOSH - Wittman Regional Airport (19 nm W)
KMTW - Manitowoc County Airport (22 nm NE)
KATW - Appleton International Airport (26 nm NW)
 
Loc | Ops | Rwys | IFR | FBO | Links
Com | Nav | Svcs | Stats | Notes
Area around 8D1 (New Holstein Municipal Airport)
 
Road maps at: MapQuest Bing Google
 
Aerial photo
WARNING: Photo may not be current or correct
Aerial photo of 8D1 (New Holstein Municipal Airport)
Do you have a better or more recent aerial photo of New Holstein Municipal Airport that you would like to share? If so, please send us your photo.

 
Sectional chart

 
Airport distance calculator
Flying to New Holstein Municipal Airport? Find the distance to fly.

From to 8D1

Sunrise and sunset
Times for 21-Nov-2019
 Local
(UTC-6)
 Zulu
(UTC)
Morning civil twilight06:2412:24
Sunrise06:5612:56
Sunset16:2122:21
Evening civil twilight16:5222:52

Current date and time
Zulu (UTC)  21-Nov-2019 16:42:41
Local (UTC-6)  21-Nov-2019 10:42:41
 
METAR
KSBM 
15nm SE 
211618Z AUTO 21015G24KT 9SM OVC010 10/08 A2956 RMK AO2 T01000083
KOSH 
19nm W 
211617Z 21011KT 3SM -RA BR OVC007 09/08 A2955 RMK AO2 P0002 T00890078
KFLD 
19nm SW 
211553Z AUTO 20013G22KT 3SM RA BR OVC007 10/08 A2956 RMK AO2 PK WND 20028/1539 SLP013 P0003 T01000083
KMTW 
22nm NE 
211604Z AUTO 14006KT 1 1/2SM -RA BR SCT004 OVC014 06/06 A2959 RMK AO2 P0001
KATW 
25nm NW 
211545Z 21006KT 2SM -RA BR OVC004 07/07 A2955
TAF
KMTW 
22nm NE 
211349Z 2114/2212 18013G20KT 5SM -RA BR OVC006 WS020/20045KT TEMPO 2114/2117 2SM RA BKN004 FM211700 22008G18KT 2SM RA BR OVC004 FM211900 29012G20KT 4SM -RA BR OVC006 FM212200 32014G26KT P6SM BKN018 FM220300 31016G24KT P6SM BKN070 FM221000 31008KT P6SM BKN090
NOTAMs
Click for the latest NOTAMs
NOTAMs are issued by the DoD/FAA and will open in a separate window not controlled by AirNav.

 

 
 

FBO, Fuel Providers, and Aircraft Ground Support

  
 Business Name 
 
 Contact 
 
 Services / Description 
 
Fuel Prices
 
Comments
  
Welch's Aviation Service, LLC 920-219-0015
920-898-5766
Airport management, Aviation fuel

More info about Welch's Aviation Service, LLC
100LL
SS $4.89 
 Updated 05-Nov-2019
 
   1 read write
SS=Self service
Update Fuel Prices
 

Would you like to see your business listed on this page?

 If your business provides an interesting product or service to pilots, flight crews, aircraft, or users of the New Holstein Municipal Airport, you should consider listing it here.  To start the listing process, click on the button below
 
Add a business
 

Other Pages about New Holstein Municipal Airport

www.ci.newholstein.wi.gov/city-departments.html?deptID=16
Page from the Wisconsin airport directory (PDF)
 
Update a link
 
Copyright © AirNav, LLC. All rights reserved. Privacy Policy  Contact